Date String (YYYY-MM-DD hh:mm:ss) UTC,Instrument flags,Ambient pressure (hPa),Sample flow (lpm),Bypass flow (lpm),Sample temperature (°C),Ambient temperature (°C),ASC tube jacket temperature (°C),LED temperature (°C),Box temperature (°C),Sample RH (%),Span deviation,Mass concentration (μg/m³),Mass concentration (μg/m³),Mass concentration (μg/m³)
DateTimeUTC,F1_M11,P_M11,Q1_M11,Q2_M11,T1_M11,T2_M11,T3_M11,T4_M11,T5_M11,U1_M11,ZSPAN_M11,X0_M11,X2_M11,X1_M11
2023-02-12 10:00:00,,0822.9,4.98,0.00,21.8,20.3,00.0,30.8,23.4,09.3,0000.0,0005.33,0003.30,0002.92
2023-02-12 10:01:00,,0822.9,5.01,0.00,21.8,20.1,00.0,30.8,23.3,09.3,0000.0,0005.41,0003.27,0002.87
2023-02-12 10:02:00,,0822.8,5.00,0.00,21.8,20.0,00.0,30.8,23.3,09.3,0000.0,0005.37,0003.24,0002.83
2023-02-12 10:03:00,,0822.8,5.01,0.00,21.7,20.0,00.0,30.7,23.3,09.4,0000.0,0005.31,0003.21,0002.80
2023-02-12 10:04:00,,0822.8,5.01,0.00,21.7,19.9,00.0,30.7,23.2,09.5,0000.0,0005.36,0003.20,0002.76
2023-02-12 10:05:00,,0822.8,4.99,0.00,21.6,19.8,00.0,30.7,23.2,09.4,0000.0,0005.22,0003.15,0002.72
2023-02-12 10:06:00,,0822.8,4.99,0.00,21.6,19.7,00.0,30.7,23.2,09.2,0000.0,0004.59,0003.12,0002.68
2023-02-12 10:07:00,,0822.9,5.01,0.00,21.6,19.7,00.0,30.7,23.2,09.3,0000.0,0004.07,0003.05,0002.62
2023-02-12 10:08:00,,0822.9,4.99,0.00,21.6,20.8,00.0,30.6,23.4,09.2,0000.0,0003.91,0002.95,0002.56
2023-02-12 10:09:00,,0822.9,5.04,0.00,21.8,22.2,00.0,30.6,23.8,09.1,0000.0,0003.83,0002.85,0002.48
2023-02-12 10:10:00,,0822.9,5.01,0.00,21.9,22.9,00.0,30.6,24.0,08.9,0000.0,0003.63,0002.73,0002.42
2023-02-12 10:11:00,,0822.8,5.02,0.00,22.0,22.2,00.0,30.7,23.9,08.9,0000.0,0003.42,0002.62,0002.36
2023-02-12 10:12:00,,0822.8,4.88,0.00,21.9,21.5,00.0,30.7,23.7,08.9,0000.0,0003.21,0002.53,0002.29
2023-02-12 10:13:00,,0822.8,5.01,0.00,21.9,21.0,00.0,30.8,23.6,08.9,0000.0,0003.08,0002.47,0002.24
2023-02-12 10:14:00,,0822.7,4.99,0.00,21.9,20.7,00.0,30.8,23.5,09.0,0000.0,0003.18,0002.41,0002.19
2023-02-12 10:15:00,,0822.7,5.02,0.00,21.8,20.4,00.0,30.8,23.4,09.1,0000.0,0003.63,0002.38,0002.16
2023-02-12 10:16:00,,0822.7,5.01,0.00,21.8,20.3,00.0,30.8,23.4,09.1,0000.0,0003.60,0002.35,0002.15
2023-02-12 10:17:00,,0822.7,5.02,0.00,21.8,20.1,00.0,30.8,23.3,09.1,0000.0,0003.72,0002.34,0002.14
2023-02-12 10:18:00,,0822.7,5.01,0.00,21.7,19.9,00.0,30.7,23.2,09.2,0000.0,0003.74,0002.35,0002.15
2023-02-12 10:19:00,,0822.7,4.99,0.00,21.7,19.8,00.0,30.7,23.2,09.3,0000.0,0003.77,0002.37,0002.16
2023-02-12 10:20:00,,0822.7,5.00,0.00,21.6,19.7,00.0,30.7,23.2,09.5,0000.0,0003.80,0002.38,0002.16
2023-02-12 10:21:00,,0822.7,5.00,0.00,21.6,19.7,00.0,30.7,23.2,09.5,0000.0,0003.79,0002.38,0002.17
2023-02-12 10:22:00,,0822.7,4.98,0.00,21.6,19.6,00.0,30.7,23.1,09.4,0000.0,0003.81,0002.40,0002.19
2023-02-12 10:23:00,,0822.7,5.00,0.00,21.6,20.2,00.0,30.6,23.2,09.3,0000.0,0003.88,0002.43,0002.20
2023-02-12 10:24:00,,0822.7,5.01,0.00,21.7,21.6,00.0,30.6,23.6,09.3,0000.0,0004.08,0002.49,0002.22
2023-02-12 10:25:00,,0822.7,4.99,0.00,21.8,22.7,00.0,30.6,23.9,09.3,0000.0,0003.88,0002.51,0002.24
2023-02-12 10:26:00,,0822.7,5.01,0.00,21.9,22.5,00.0,30.7,23.9,09.3,0000.0,0003.38,0002.52,0002.26
2023-02-12 10:27:00,,0822.7,5.04,0.00,21.9,21.8,00.0,30.7,23.8,09.2,0000.0,0003.51,0002.56,0002.27
2023-02-12 10:28:00,,0822.7,4.95,0.00,21.9,21.3,00.0,30.7,23.7,09.1,0000.0,0003.58,0002.55,0002.28
2023-02-12 10:29:00,,0822.6,5.03,0.00,21.9,21.0,00.0,30.7,23.6,09.3,0000.0,0003.61,0002.59,0002.31
2023-02-12 10:30:00,,0822.7,4.95,0.00,21.9,20.7,00.0,30.8,23.5,09.2,0000.0,0003.60,0002.61,0002.33
2023-02-12 10:31:00,,0822.7,5.03,0.00,21.9,20.5,00.0,30.8,23.5,09.3,0000.0,0003.54,0002.60,0002.35
2023-02-12 10:32:00,,0822.6,4.95,0.00,21.8,20.3,00.0,30.7,23.4,09.4,0000.0,0003.66,0002.64,0002.36
2023-02-12 10:33:00,,0822.7,5.03,0.00,21.8,20.2,00.0,30.7,23.4,09.3,0000.0,0003.77,0002.68,0002.38
2023-02-12 10:34:00,,0822.7,4.97,0.00,21.8,20.1,00.0,30.7,23.4,09.4,0000.0,0003.89,0002.74,0002.41
2023-02-12 10:35:00,,0822.7,5.02,0.00,21.8,20.1,00.0,30.7,23.4,09.5,0000.0,0003.78,0002.75,0002.43
2023-02-12 10:36:00,,0822.7,5.01,0.00,21.7,20.0,00.0,30.7,23.4,09.5,0000.0,0003.79,0002.76,0002.43
2023-02-12 10:37:00,,0822.8,4.96,0.00,21.7,19.9,00.0,30.7,23.3,09.2,0000.0,0003.84,0002.76,0002.42
2023-02-12 10:38:00,,0822.7,5.02,0.00,21.7,19.8,00.0,30.7,23.3,09.0,0000.0,0003.78,0002.74,0002.41
2023-02-12 10:39:00,,0822.7,4.99,0.00,21.6,19.8,00.0,30.7,23.2,09.0,0000.0,0003.55,0002.70,0002.37
2023-02-12 10:40:00,,0822.7,4.99,0.00,21.6,19.7,00.0,30.6,23.2,08.8,0000.0,0003.44,0002.66,0002.33
2023-02-12 10:41:00,,0822.7,5.01,0.00,21.6,20.1,00.0,30.6,23.3,08.7,0000.0,0003.31,0002.58,0002.27
2023-02-12 10:42:00,,0822.8,4.94,0.00,21.7,21.5,00.0,30.6,23.6,08.7,0000.0,0003.25,0002.52,0002.21
2023-02-12 10:43:00,,0822.7,5.05,0.00,21.9,22.7,00.0,30.6,23.9,08.7,0000.0,0003.24,0002.49,0002.16
2023-02-12 10:44:00,,0822.7,5.04,0.00,22.0,22.7,00.0,30.7,24.0,08.8,0000.0,0003.26,0002.43,0002.11
2023-02-12 10:45:00,,0822.7,5.03,0.00,22.0,22.1,00.0,30.7,23.9,09.1,0000.0,0003.19,0002.36,0002.07
2023-02-12 10:46:00,,0822.6,4.97,0.00,22.0,21.6,00.0,30.7,23.8,09.0,0000.0,0003.17,0002.33,0002.03
2023-02-12 10:47:00,,0822.7,5.01,0.00,22.0,21.2,00.0,30.8,23.8,08.7,0000.0,0003.14,0002.29,0002.00
2023-02-12 10:48:00,,0822.6,5.02,0.00,22.0,20.9,00.0,30.8,23.7,08.6,0000.0,0003.45,0002.25,0001.95
2023-02-12 10:49:00,,0822.7,5.01,0.00,22.0,20.7,00.0,30.8,23.6,08.6,0000.0,0003.76,0002.22,0001.92
2023-02-12 10:50:00,,0822.6,5.00,0.00,21.9,20.6,00.0,30.8,23.6,08.5,0000.0,0003.80,0002.22,0001.88
2023-02-12 10:51:00,,0822.6,5.01,0.00,21.9,20.5,00.0,30.8,23.6,08.4,0000.0,0003.83,0002.20,0001.84
2023-02-12 10:52:00,,0822.6,5.00,0.00,21.9,20.4,00.0,30.8,23.6,08.4,0000.0,0003.81,0002.18,0001.81
2023-02-12 10:53:00,,0822.6,4.98,0.00,21.9,20.3,00.0,30.8,23.6,08.5,0000.0,0003.83,0002.18,0001.80
2023-02-12 10:54:00,,0822.6,5.00,0.00,21.9,20.3,00.0,30.8,23.6,08.6,0000.0,0003.87,0002.18,0001.81
2023-02-12 10:55:00,,0822.6,5.02,0.00,21.9,20.2,00.0,30.8,23.6,08.6,0000.0,0003.63,0002.14,0001.79
2023-02-12 10:56:00,,0822.6,5.00,0.00,21.9,20.2,00.0,30.8,23.5,08.6,0000.0,0003.71,0002.13,0001.77
2023-02-12 10:57:00,,0822.6,5.01,0.00,21.8,20.1,00.0,30.8,23.5,08.9,0000.0,0004.38,0002.11,0001.74
2023-02-12 10:58:00,,0822.6,5.01,0.00,21.8,20.1,00.0,30.8,23.4,08.8,0000.0,0004.54,0002.09,0001.73
2023-02-12 10:59:00,,0822.6,5.00,0.00,21.8,20.0,00.0,30.8,23.4,08.8,0000.0,0004.23,0002.07,0001.72
